Location: Moscow
(30.9132°N, 94.8252°W)
Time: 05:53:41
(UTC+00:00)

Cosmos 1459 Rocket - Pass Details

Date: 15 November 2025
Orbit: 936 x 997 km, 83.0° (Epoch: 04 December)

Event Time Altitude Azimuth Distance (km) Brightness Sun altitude
Exits shadow 11:06:46 36° 256° (WSW) 1,492 4.5 -21.4°
Drops below altitude 10° 11:11:42 10° 206° (SSW) 2,710 6.2 -20.3°
Sets 11:14:21 0° 198° (SSW) 3,644 6.9 -19.8°
